TimeEST,TemperatureF,Dew PointF,Humidity,Sea Level PressureIn,VisibilityMPH,Wind Direction,Wind SpeedMPH,Gust SpeedMPH,PrecipitationIn,Events,Conditions,WindDirDegrees,DateUTC
12:54 AM,44.1,24.1,45,30.03,10.0,West,13.8,21.9,N/A,,Clear,260,2013-01-10 05:54:00
1:54 AM,44.1,25.0,47,30.03,10.0,West,17.3,28.8,N/A,,Partly Cloudy,260,2013-01-10 06:54:00
2:54 AM,44.1,25.0,47,30.09,10.0,WNW,17.3,31.1,N/A,,Partly Cloudy,290,2013-01-10 07:54:00
3:54 AM,43.0,23.0,45,30.13,10.0,WNW,13.8,28.8,N/A,,Clear,290,2013-01-10 08:54:00
4:54 AM,43.0,23.0,45,30.17,10.0,WNW,21.9,39.1,N/A,,Clear,300,2013-01-10 09:54:00
5:54 AM,41.0,23.0,49,30.20,10.0,WNW,18.4,24.2,N/A,,Clear,300,2013-01-10 10:54:00
6:54 AM,41.0,21.9,47,30.24,10.0,WNW,13.8,25.3,N/A,,Clear,290,2013-01-10 11:54:00
7:54 AM,39.9,21.0,47,30.28,10.0,WNW,12.7,18.4,N/A,,Clear,290,2013-01-10 12:54:00
8:54 AM,42.1,19.9,41,30.30,10.0,WNW,17.3,28.8,N/A,,Clear,300,2013-01-10 13:54:00
9:54 AM,43.0,21.0,42,30.33,10.0,WNW,17.3,38.0,N/A,,Clear,300,2013-01-10 14:54:00
10:54 AM,45.0,21.9,40,30.32,10.0,WNW,18.4,28.8,N/A,,Clear,300,2013-01-10 15:54:00
11:54 AM,45.0,21.9,40,30.32,10.0,NW,10.4,23.0,N/A,,Clear,310,2013-01-10 16:54:00
12:54 PM,46.0,21.9,39,30.33,10.0,WNW,13.8,27.6,N/A,,Clear,300,2013-01-10 17:54:00
1:54 PM,46.0,21.9,39,30.36,10.0,NW,12.7,23.0,N/A,,Clear,310,2013-01-10 18:54:00
2:54 PM,46.0,21.9,39,30.39,10.0,NW,6.9,25.3,N/A,,Clear,320,2013-01-10 19:54:00
3:54 PM,44.1,21.0,40,30.42,10.0,NW,8.1,16.1,N/A,,Clear,320,2013-01-10 20:54:00
4:54 PM,42.1,21.0,43,30.46,10.0,NW,8.1,-,N/A,,Clear,320,2013-01-10 21:54:00
5:54 PM,41.0,21.0,45,30.47,10.0,WNW,10.4,20.7,N/A,,Clear,300,2013-01-10 22:54:00
6:54 PM,39.9,21.9,49,30.46,10.0,NW,12.7,17.3,N/A,,Clear,310,2013-01-10 23:54:00
7:54 PM,37.9,21.0,51,30.50,10.0,Variable,3.5,-,N/A,,Clear,0,2013-01-11 00:54:00
8:54 PM,37.0,21.0,52,30.52,10.0,WNW,5.8,-,N/A,,Clear,300,2013-01-11 01:54:00
9:54 PM,36.0,21.0,55,30.55,10.0,WNW,3.5,-,N/A,,Clear,300,2013-01-11 02:54:00
10:54 PM,33.1,21.9,64,30.55,10.0,Calm,Calm,-,N/A,,Clear,0,2013-01-11 03:54:00
11:54 PM,33.8,21.2,60,30.53,10.0,Calm,Calm,-,N/A,,Clear,0,2013-01-11 04:54:00